Voltar ao catálogo

SL-16 DEB

AtivoLEO
NORAD 39725·DEBRIS·🇷🇺 Russia

Lançado Dec 25, 1992 de Baikonur Cosmodrome

Loading…

Próximas Passagens (próximas 24 horas)

TLE

AtualizadoSource: Space-Track

Época: Sep 13, 2026, 11:56 UTC

1 39725U 92093KR  26256.49783891  .00001287  00000-0  61767-3 0  9997
2 39725  71.1737 296.8827 0077696 115.6260 245.2920 14.19164175639429

Acompanhe SL-16 DEB em tempo real com AllMySat

Download on the App Store